[[{"header":{"parameterUnit":"m.s-1","parameterCategory":1,"la1":30.2991,"la2":30.254,"lo1":-89.0895,"lo2":-89.0444,"dy":0.0017,"dx":0.0017,"nx":28,"ny":28,"refTime":"2025-04-10T21:00:00:Z","depth":0,"parameterNumber":2,"parameterNumberName":"U-component_of_WINDS"},"data":[0,0,0,0,0,0,0,0,0,0,0,0,0,0,0,0,0,0,0,0,0,0,0,0,0,0,0,0,0,0,0,0,0,0,0,0,0,0,0,0,0,0,0,0,0,0,0,0,0,0,0,0,0,0,0,0,0,0,7.2659,7.2661,0,7.2804,7.2806,7.2807,7.2665,7.266,7.2654,7.2649,7.2799,7.2807,7.2817,0,0,0,0,0,0,0,0,0,0,0,0,0,7.2262,7.227,7.2659,7.2661,7.2663,7.2804,7.2806,7.2808,7.2666,7.266,7.2653,7.2646,7.2795,7.2806,7.2817,0,0,0,0,0,0,0,0,0,0,0,0,0,7.2423,7.2272,7.2659,7.2609,7.2606,7.2803,7.2806,7.2808,7.2668,7.2659,7.2651,7.2643,7.2792,7.2805,7.2819,7.3073,0,0,7.2861,7.2867,0,0,0,0,0,0,0,0,7.2414,7.2438,7.2615,7.2613,7.261,7.2708,7.272,7.2897,7.267,7.2645,7.2649,7.2639,7.2775,7.279,7.2836,7.308,7.3086,7.2862,7.2871,7.2877,7.2881,0,0,0,0,0,0,0,7.2403,7.2431,7.2716,7.2618,7.2615,7.258,7.2594,7.2753,7.2755,7.2646,7.2636,7.2655,7.2772,7.2823,7.2838,7.3088,7.2862,7.2874,7.2883,7.2888,7.3547,7.3555,0,0,0,0,0,0,7.2397,7.2423,7.2712,7.2721,7.2489,7.2594,7.2609,7.2685,7.2753,7.2755,7.2662,7.2648,7.2803,7.2822,7.2843,7.3144,7.2877,7.289,7.2897,7.3538,7.3549,7.3559,0,0,0,0,0,0,7.2389,7.2424,7.2706,7.2569,7.2602,7.261,7.2696,7.2692,7.2742,7.2765,7.2765,7.2713,7.2797,7.2823,7.3016,7.3147,7.2896,7.2908,7.3527,7.3541,7.3554,7.3748,0,0,0,0,0,0,7.2378,7.2422,7.2519,7.2572,7.261,7.2878,7.2704,7.2701,7.2766,7.2749,7.2813,7.2816,7.2793,7.2996,7.303,7.3161,7.2919,7.3515,7.3533,7.3549,7.373,7.3767,7.3798,0,0,0,0,0,7.2365,7.2568,7.2524,7.256,7.2731,7.2885,7.2907,7.2876,7.2778,7.2875,7.2889,7.2813,7.3127,7.3017,7.3054,7.3192,7.3507,7.3528,7.3548,7.3715,7.376,7.3798,0,0,0,0,0,0,7.2531,7.2574,7.2526,7.2753,7.2817,7.2861,7.2982,7.2925,7.3018,7.2998,7.2956,7.2972,7.3176,7.3203,7.308,7.344,7.3301,7.333,7.3415,7.3458,7.3492,7.3481,7.2931,0,0,0,0,0,7.2593,7.2715,7.2747,7.2944,7.2978,7.2976,7.3042,7.3012,7.3076,7.3103,7.3131,7.3197,7.331,7.3385,7.3491,7.3733,7.3745,7.3846,7.388,7.3908,7.3934,7.4063,7.4108,7.3627,7.3627,7.3626,0,0,7.2725,7.2764,7.2843,7.2978,7.3024,7.3151,7.2999,7.314,7.3234,7.3124,7.3308,7.3331,7.3402,7.362,7.3718,7.3649,7.4069,7.3934,7.3956,7.3967,7.4089,7.4135,7.4175,7.3641,7.3638,7.3636,0,0,7.3029,7.3071,7.3239,7.3288,7.3359,7.3355,7.3396,7.345,7.3461,7.3645,7.3565,7.3676,7.3872,7.3925,7.3978,7.4302,7.4235,7.4337,7.4516,7.4643,7.468,7.4714,7.4829,7.4871,7.4363,7.4363,7.4363,0,7.3183,7.3371,7.3333,7.348,7.3542,7.3448,7.3618,7.3667,7.377,7.3814,7.3735,7.3979,7.402,7.4249,7.4328,7.4374,7.4419,7.433,7.4678,7.4711,7.4742,7.4851,7.4895,7.4375,7.4374,7.4372,7.4371,0,7.3557,7.3689,7.3817,7.3917,7.3993,7.4151,7.4137,7.4219,7.4183,7.4188,7.4376,7.4421,7.4534,7.4586,7.4553,7.4812,7.4766,7.4684,7.4543,7.48,7.4902,7.4944,7.4392,7.4388,7.4384,7.4381,0,0,7.3971,7.4047,7.4095,7.4139,7.421,7.4311,7.4465,7.4574,7.4645,7.4719,7.4846,7.5014,7.4938,7.4998,7.4969,7.5081,7.5334,7.4984,7.4985,7.5047,7.5621,7.5683,7.5732,7.529,7.5298,7.5304,7.5615,0,7.4276,7.4543,7.4513,7.4767,7.4888,7.48,7.4934,7.4992,7.5001,7.5105,7.5114,7.5234,7.5124,7.516,7.5266,7.5281,7.5449,7.5258,7.5409,7.5414,7.5394,7.5785,7.5851,7.6142,7.5655,7.5661,7.5666,0,7.4669,7.4756,7.5022,7.5074,7.5124,7.5245,7.5342,7.5443,7.5507,7.5505,7.5572,7.5524,7.5678,7.5535,7.5746,7.5617,7.5677,7.5693,7.5704,7.5717,7.5556,7.5808,7.6234,7.6277,7.5729,7.5724,7.5719,0,7.4943,7.5127,7.531,7.535,7.5416,7.5502,7.5534,7.5589,7.5657,7.5742,7.5786,7.5889,7.5945,7.6026,7.6007,7.5904,7.6223,7.6077,7.6226,7.6227,7.6297,7.6293,7.6738,7.6337,7.6336,7.6335,7.6334,0,7.5288,7.5454,7.5434,7.5546,7.573,7.5694,7.5876,7.5897,7.5947,7.6062,7.5992,7.6101,7.607,7.6178,7.6164,7.6341,7.6367,7.637,7.6364,7.6376,7.6376,7.6414,7.6394,7.6347,7.6344,7.6342,7.634,0,7.5626,7.5618,7.5812,7.5857,7.5873,7.6006,7.6045,7.6151,7.6154,7.63,7.6332,7.6337,7.646,7.6449,7.6588,7.6578,7.6797,7.6768,7.6776,7.6769,7.6918,7.6904,7.7404,7.7467,7.7025,7.7029,7.7033,0,7.5846,7.5972,7.6031,7.6102,7.6139,7.6256,7.6324,7.6294,7.6368,7.645,7.6546,7.6663,7.6755,7.6956,7.6972,7.7077,7.7049,7.7217,7.7065,7.7073,7.7051,7.7044,7.7056,7.7247,7.7252,7.7256,7.726,0,7.6238,7.6228,7.6329,7.643,7.6513,7.6591,7.6661,7.6724,7.67,7.6787,7.6912,7.6983,7.7124,7.7241,7.7341,7.7372,7.7313,7.7307,7.7347,7.736,7.736,7.7361,7.6857,7.7296,7.7292,7.729,7.7288,7.7286,7.6523,7.663,7.6688,7.6803,7.6853,7.692,7.7022,7.7037,7.7141,7.7253,7.7228,7.7369,7.7429,7.7557,7.7599,7.7708,7.7648,7.7706,7.772,7.7735,7.7752,7.7343,7.7727,7.7725,7.7724,7.7724,7.7723,0,7.6911,7.6943,7.705,7.715,7.724,7.7176,7.725,7.733,7.7454,7.7515,7.7607,7.775,7.7863,7.7888,7.7995,7.8078,7.8053,7.8107,7.8101,7.8109,7.78,7.7755,7.8126,7.8125,7.8125,7.8125,7.8125,7.8125,7.7123,7.7301,7.7298,7.75,7.7531,7.7668,7.7716,7.7778,7.7826,7.7989,7.8082,7.8097,7.8144,7.8254,7.8354,7.8358,7.8401,7.8466,7.846,7.8171,7.8131,7.8092,7.8049,7.8476,7.8477,7.8759,7.8762,7.8764]},{"header":{"parameterUnit":"m.s-1","parameterCategory":1,"la1":30.2991,"la2":30.254,"lo1":-89.0895,"lo2":-89.0444,"dy":0.0017,"dx":0.0017,"nx":28,"ny":28,"refTime":"2025-04-10T21:00:00:Z","depth":0,"parameterNumber":3,"parameterNumberName":"V-component_of_WINDS"},"data":[0,0,0,0,0,0,0,0,0,0,0,0,0,0,0,0,0,0,0,0,0,0,0,0,0,0,0,0,0,0,0,0,0,0,0,0,0,0,0,0,0,0,0,0,0,0,0,0,0,0,0,0,0,0,0,0,0,0,0.5682,0.5682,0,0.5711,0.5711,0.5711,0.5694,0.5693,0.5692,0.5691,0.5723,0.5725,0.5727,0,0,0,0,0,0,0,0,0,0,0,0,0,0.5613,0.5614,0.5682,0.5682,0.5683,0.5711,0.5711,0.5712,0.5694,0.5693,0.5692,0.5691,0.5723,0.5725,0.5727,0,0,0,0,0,0,0,0,0,0,0,0,0,0.5642,0.5614,0.5682,0.5677,0.5677,0.5711,0.5711,0.5712,0.5694,0.5693,0.5692,0.569,0.5722,0.5725,0.5727,0.5767,0,0,0.5734,0.5736,0,0,0,0,0,0,0,0,0.5641,0.5645,0.5678,0.5678,0.5677,0.5697,0.5698,0.573,0.5695,0.5688,0.5691,0.569,0.5716,0.5719,0.5727,0.5769,0.577,0.5735,0.5736,0.5737,0.5738,0,0,0,0,0,0,0,0.5639,0.5643,0.5693,0.5678,0.5678,0.5674,0.5677,0.5704,0.5709,0.5688,0.5687,0.5691,0.5716,0.5725,0.5728,0.5771,0.5735,0.5737,0.5738,0.5739,0.5846,0.5847,0,0,0,0,0,0,0.5637,0.5642,0.5692,0.5694,0.5655,0.5676,0.5679,0.5692,0.5708,0.5709,0.5692,0.569,0.5721,0.5725,0.5729,0.5777,0.5737,0.574,0.5741,0.5845,0.5846,0.5848,0,0,0,0,0,0,0.5635,0.5641,0.5691,0.5668,0.5674,0.5679,0.5693,0.5694,0.5703,0.5711,0.5712,0.57,0.572,0.5725,0.5758,0.5777,0.5741,0.5743,0.5843,0.5845,0.5847,0.5873,0,0,0,0,0,0,0.5633,0.5641,0.5656,0.5668,0.5675,0.5719,0.5695,0.5695,0.5707,0.5704,0.5719,0.572,0.572,0.5754,0.576,0.578,0.5745,0.5841,0.5844,0.5847,0.5871,0.5876,0.588,0,0,0,0,0,0.5631,0.5663,0.5657,0.5663,0.5694,0.5721,0.5725,0.5723,0.5708,0.5724,0.5729,0.572,0.5774,0.5757,0.5764,0.5785,0.584,0.5843,0.5846,0.5868,0.5875,0.588,0,0,0,0,0,0,0.5655,0.5665,0.5658,0.5695,0.5707,0.5718,0.5737,0.573,0.5747,0.5744,0.5741,0.5745,0.5778,0.5785,0.5766,0.5825,0.5805,0.581,0.5819,0.5826,0.583,0.5828,0.5747,0,0,0,0,0,0.5664,0.5684,0.5692,0.5724,0.573,0.5733,0.5744,0.5741,0.5754,0.5759,0.5767,0.578,0.5799,0.5813,0.5832,0.5871,0.5874,0.5889,0.5894,0.5898,0.5902,0.5922,0.5929,0.5858,0.5858,0.5858,0,0,0.5684,0.5692,0.5705,0.5729,0.5738,0.5759,0.5737,0.5761,0.5776,0.5763,0.5794,0.5799,0.5814,0.5849,0.5865,0.5856,0.5922,0.5902,0.5905,0.5907,0.5926,0.5933,0.5939,0.586,0.586,0.5859,0,0,0.5731,0.5739,0.5766,0.5775,0.5788,0.5789,0.5796,0.5807,0.581,0.5841,0.5831,0.5849,0.5884,0.5894,0.5904,0.5953,0.5945,0.5959,0.5985,0.6005,0.6011,0.6016,0.6033,0.6039,0.5963,0.5963,0.5963,0,0.5755,0.5786,0.5781,0.5805,0.5816,0.5803,0.583,0.5839,0.5859,0.5866,0.5855,0.5897,0.5906,0.5943,0.5955,0.5963,0.5971,0.5958,0.601,0.6015,0.602,0.6036,0.6043,0.5965,0.5965,0.5965,0.5964,0,0.5813,0.5835,0.5855,0.5873,0.5885,0.5911,0.5911,0.5924,0.592,0.5922,0.5953,0.5963,0.5983,0.5991,0.5988,0.6028,0.6021,0.601,0.599,0.6028,0.6043,0.605,0.5967,0.5967,0.5966,0.5966,0,0,0.5878,0.5891,0.5899,0.5906,0.5919,0.5936,0.596,0.5979,0.599,0.6003,0.6024,0.6052,0.6041,0.6053,0.605,0.6067,0.6105,0.6054,0.6054,0.6063,0.6149,0.6158,0.6165,0.6099,0.6101,0.6102,0.6148,0,0.5926,0.5968,0.5964,0.6005,0.6024,0.6011,0.6033,0.6043,0.6045,0.6063,0.6065,0.6086,0.607,0.6076,0.6093,0.6097,0.6122,0.6093,0.6119,0.612,0.6116,0.6173,0.6183,0.6227,0.6154,0.6155,0.6156,0,0.5988,0.6002,0.6044,0.6052,0.606,0.608,0.6096,0.6112,0.6123,0.6123,0.6135,0.6129,0.6153,0.6132,0.6166,0.6146,0.6156,0.616,0.6161,0.6164,0.6141,0.6178,0.6241,0.6247,0.6165,0.6165,0.6164,0,0.603,0.606,0.6088,0.6095,0.6106,0.6119,0.6125,0.6134,0.6145,0.6159,0.6166,0.6184,0.6193,0.6206,0.6205,0.619,0.6239,0.6218,0.624,0.6241,0.6252,0.6252,0.6317,0.6258,0.6258,0.6258,0.6258,0,0.6084,0.6111,0.6107,0.6125,0.6154,0.6149,0.6177,0.6181,0.6189,0.6207,0.6198,0.6215,0.6212,0.6229,0.6228,0.6256,0.6261,0.6262,0.6261,0.6263,0.6263,0.627,0.6267,0.626,0.6259,0.6259,0.6259,0,0.6137,0.6136,0.6167,0.6174,0.6176,0.6197,0.6203,0.622,0.622,0.6243,0.6249,0.625,0.627,0.6269,0.6292,0.6291,0.6326,0.6322,0.6322,0.6321,0.6343,0.6341,0.6416,0.6426,0.636,0.6361,0.6361,0,0.6172,0.6192,0.6201,0.6211,0.6217,0.6235,0.6246,0.6242,0.6253,0.6266,0.6281,0.63,0.6314,0.6346,0.635,0.6367,0.6363,0.6388,0.6366,0.6366,0.6363,0.6362,0.6364,0.6393,0.6393,0.6394,0.6395,0,0.6234,0.6232,0.6248,0.6263,0.6275,0.6287,0.6298,0.6308,0.6304,0.6318,0.6337,0.6348,0.637,0.6389,0.6405,0.641,0.6402,0.6401,0.6407,0.6409,0.6409,0.6409,0.6334,0.64,0.6399,0.6399,0.6399,0.6398,0.6279,0.6295,0.6304,0.6321,0.6328,0.6338,0.6354,0.6356,0.6372,0.6389,0.6385,0.6407,0.6416,0.6436,0.6443,0.646,0.6451,0.646,0.6463,0.6465,0.6467,0.6405,0.6463,0.6463,0.6463,0.6463,0.6463,0,0.634,0.6344,0.636,0.6375,0.6388,0.6378,0.6389,0.6401,0.642,0.6429,0.6443,0.6465,0.6482,0.6486,0.6503,0.6515,0.6512,0.652,0.6519,0.652,0.6474,0.6467,0.6522,0.6522,0.6522,0.6522,0.6522,0.6522,0.6374,0.6401,0.6399,0.643,0.6434,0.6454,0.6461,0.647,0.6477,0.6502,0.6516,0.6518,0.6525,0.6541,0.6556,0.6557,0.6564,0.6573,0.6573,0.653,0.6524,0.6518,0.6511,0.6575,0.6575,0.6617,0.6618,0.6618]}]]